Location: Hilton Head Island
(32.2163°N, 80.7526°W)
Time: 15:10:23
(UTC-05:00)

Explorer 11/Cluster Stage 4 - Pass Details

Date: 22 February 2026
Orbit: 463 x 1176 km, 28.8° (Epoch: 6 March)

Event Time Altitude Azimuth Distance (km) Brightness Sun altitude
Rises 13:16:01 0° 263° (W) 3,101 9.8 46.7°
Reaches altitude 10° 13:18:42 10° 259° (W) 2,060 9.1 46.6°
Maximum altitude 13:23:18 54° 182° (S) 690 8.6 46.3°
Drops below altitude 10° 13:27:10 10° 104° (ESE) 1,732 8.5 46.1°
Sets 13:29:15 0° 100° (E) 2,558 9.2 46.0°
